[[{"header":{"parameterUnit":"m.s-1","parameterCategory":1,"la1":30.2991,"la2":30.254,"lo1":-89.0895,"lo2":-89.0444,"dy":0.0017,"dx":0.0017,"nx":28,"ny":28,"refTime":"2025-06-01T09:00:00:Z","depth":0,"parameterNumber":2,"parameterNumberName":"U-component_of_WINDS"},"data":[0,0,0,0,0,0,0,0,0,0,0,0,0,0,0,0,0,0,0,0,0,0,0,0,0,0,0,0,0,0,0,0,0,0,0,0,0,0,0,0,0,0,0,0,0,0,0,0,0,0,0,0,0,0,0,0,0,0,2.7828,2.7824,0,2.7451,2.7446,2.7442,2.7176,2.7174,2.7172,2.717,2.6778,2.677,2.6761,0,0,0,0,0,0,0,0,0,0,0,0,0,2.8313,2.8305,2.7829,2.7824,2.7819,2.7451,2.7446,2.7441,2.7177,2.7174,2.7172,2.7169,2.6781,2.6771,2.6761,0,0,0,0,0,0,0,0,0,0,0,0,0,2.8036,2.8303,2.7829,2.7643,2.7623,2.7453,2.7446,2.744,2.7177,2.7174,2.7171,2.7168,2.6784,2.6772,2.6759,2.6743,0,0,2.672,2.6715,0,0,0,0,0,0,0,0,2.8052,2.8018,2.7675,2.7656,2.7632,2.7358,2.7473,2.7206,2.7178,2.7346,2.717,2.7167,2.6973,2.6945,2.688,2.6724,2.6707,2.6719,2.6711,2.6706,2.6702,0,0,0,0,0,0,0,2.8071,2.8033,2.7679,2.767,2.7644,2.7576,2.7533,2.7421,2.7181,2.7331,2.7311,2.727,2.6961,2.6893,2.6869,2.6702,2.6719,2.6708,2.67,2.6695,2.6507,2.6509,0,0,0,0,0,0,2.8121,2.8051,2.7691,2.7667,2.7839,2.757,2.7522,2.7449,2.7182,2.7138,2.7273,2.7259,2.6917,2.6884,2.6854,2.6811,2.6706,2.6694,2.6687,2.6504,2.6507,2.651,0,0,0,0,0,0,2.8132,2.8091,2.7706,2.7853,2.7799,2.7565,2.7485,2.7443,2.7375,2.7138,2.7094,2.7249,2.6913,2.6872,2.6771,2.6795,2.6688,2.6677,2.6501,2.6505,2.6509,2.6731,0,0,0,0,0,0,2.8147,2.8097,2.809,2.7855,2.7792,2.7632,2.7486,2.7438,2.7355,2.7333,2.7103,2.7062,2.6907,2.6792,2.6759,2.6775,2.6667,2.6498,2.6503,2.6507,2.672,2.6742,2.6761,0,0,0,0,0,2.8165,2.8167,2.8091,2.8049,2.7779,2.7634,2.7597,2.7421,2.7358,2.7347,2.7194,2.707,2.68,2.6784,2.6744,2.6757,2.6495,2.6501,2.6507,2.6711,2.6738,2.676,0,0,0,0,0,0,2.8408,2.8133,2.8045,2.7972,2.7829,2.759,2.757,2.7455,2.7325,2.731,2.7094,2.7045,2.6965,2.6851,2.6839,2.6724,2.6631,2.663,2.68,2.6824,2.6844,2.6869,2.6656,0,0,0,0,0,2.8454,2.8362,2.8125,2.8083,2.8016,2.7807,2.7737,2.7613,2.7455,2.7392,2.7232,2.7082,2.6962,2.6887,2.6765,2.6705,2.6648,2.6694,2.6715,2.6732,2.6731,2.6685,2.6701,2.653,2.653,2.653,0,0,2.8546,2.8384,2.8338,2.8128,2.8002,2.7908,2.7757,2.7665,2.7591,2.7377,2.727,2.7149,2.6967,2.6885,2.6841,2.6788,2.6767,2.674,2.6756,2.6744,2.6693,2.671,2.6724,2.6534,2.6533,2.6532,0,0,2.8663,2.8535,2.8483,2.8361,2.8173,2.8034,2.8022,2.78,2.7711,2.7602,2.7438,2.7348,2.7148,2.7022,2.6933,2.7005,2.6883,2.6971,2.7073,2.7032,2.7045,2.7056,2.7075,2.7085,2.6972,2.6973,2.6973,0,2.88,2.8653,2.847,2.8386,2.8296,2.8102,2.8045,2.7935,2.7717,2.7658,2.7603,2.7345,2.7209,2.7093,2.711,2.7047,2.7022,2.6993,2.7059,2.7067,2.7075,2.709,2.7099,2.6984,2.6983,2.6982,2.6981,0,2.8828,2.8729,2.871,2.8505,2.8413,2.8344,2.8147,2.8076,2.7962,2.7828,2.7717,2.7548,2.7385,2.7349,2.7236,2.7216,2.7188,2.71,2.7,2.7106,2.7116,2.7122,2.7001,2.6996,2.6993,2.699,0,0,2.9083,2.8779,2.8774,2.8677,2.8457,2.8375,2.8296,2.8139,2.8079,2.7937,2.7861,2.7697,2.7612,2.7511,2.7382,2.7347,2.7407,2.726,2.7253,2.7288,2.7367,2.7431,2.7441,2.7328,2.7328,2.7329,2.738,0,2.9161,2.901,2.8843,2.8749,2.8652,2.8467,2.8397,2.8253,2.8127,2.8024,2.7883,2.7767,2.7668,2.7605,2.7562,2.7409,2.7419,2.7404,2.725,2.7247,2.7295,2.7448,2.7515,2.7571,2.7384,2.7385,2.7385,0,2.9232,2.9098,2.8996,2.8781,2.8734,2.8675,2.8515,2.8422,2.8253,2.8163,2.8052,2.7914,2.7818,2.7737,2.7598,2.7591,2.7519,2.7435,2.7433,2.7406,2.7318,2.7419,2.7585,2.7592,2.7391,2.7391,2.739,0,2.942,2.9216,2.9126,2.905,2.88,2.8761,2.8655,2.8484,2.8399,2.826,2.8201,2.8054,2.7971,2.7858,2.7683,2.7641,2.7561,2.7466,2.7479,2.7483,2.7465,2.7467,2.7616,2.7431,2.7431,2.7431,2.7431,0,2.9521,2.9464,2.9207,2.9151,2.908,2.8889,2.8823,2.8699,2.8549,2.8463,2.8296,2.8218,2.7996,2.7891,2.7754,2.7657,2.7623,2.7543,2.7506,2.7554,2.7564,2.7499,2.7488,2.7433,2.7432,2.7432,2.7432,0,2.9717,2.9544,2.9432,2.9206,2.9147,2.9105,2.8908,2.8845,2.8711,2.8604,2.8568,2.8355,2.8223,2.8039,2.7851,2.7759,2.7678,2.7624,2.7735,2.7712,2.7733,2.7731,2.7839,2.7841,2.7664,2.7666,2.7668,0,2.9789,2.974,2.9509,2.9441,2.9341,2.9233,2.9146,2.8956,2.8872,2.8676,2.8636,2.8492,2.8365,2.8163,2.7989,2.7843,2.7779,2.7828,2.7756,2.7804,2.7772,2.7774,2.7766,2.7843,2.7846,2.7848,2.785,0,2.9934,2.9851,2.9733,2.9586,2.9487,2.9361,2.9227,2.918,2.8961,2.8874,2.8738,2.8641,2.8449,2.8305,2.8136,2.8022,2.7898,2.7876,2.7869,2.7914,2.7978,2.7937,2.7775,2.7872,2.787,2.7868,2.7867,2.7866,3.0064,3.0011,2.984,2.9713,2.9594,2.9472,2.9401,2.9258,2.9142,2.8972,2.8867,2.8735,2.8564,2.8325,2.8218,2.8109,2.8058,2.8052,2.8048,2.8048,2.8062,2.8003,2.8078,2.8077,2.8076,2.8076,2.8075,0,3.0194,3.0076,2.9963,2.9781,2.9681,2.9578,2.9424,2.9346,2.9232,2.9086,2.8966,2.8808,2.8668,2.8485,2.8331,2.8279,2.8218,2.8245,2.8243,2.8217,2.8118,2.8136,2.8296,2.8296,2.8296,2.8296,2.8296,2.8296,3.025,3.0153,3.005,2.9891,2.9771,2.9642,2.9562,2.9447,2.9329,2.9161,2.9045,2.8928,2.8764,2.8598,2.8464,2.8413,2.8361,2.8405,2.8336,2.8245,2.8225,2.8206,2.8221,2.8397,2.8397,2.8443,2.8443,2.8444]},{"header":{"parameterUnit":"m.s-1","parameterCategory":1,"la1":30.2991,"la2":30.254,"lo1":-89.0895,"lo2":-89.0444,"dy":0.0017,"dx":0.0017,"nx":28,"ny":28,"refTime":"2025-06-01T09:00:00:Z","depth":0,"parameterNumber":3,"parameterNumberName":"V-component_of_WINDS"},"data":[0,0,0,0,0,0,0,0,0,0,0,0,0,0,0,0,0,0,0,0,0,0,0,0,0,0,0,0,0,0,0,0,0,0,0,0,0,0,0,0,0,0,0,0,0,0,0,0,0,0,0,0,0,0,0,0,0,0,1.5092,1.5095,0,1.5352,1.5355,1.5358,1.544,1.5438,1.5437,1.5436,1.5686,1.5694,1.5702,0,0,0,0,0,0,0,0,0,0,0,0,0,1.4652,1.466,1.5091,1.5095,1.5098,1.5352,1.5356,1.5359,1.544,1.5438,1.5437,1.5435,1.5684,1.5693,1.5702,0,0,0,0,0,0,0,0,0,0,0,0,0,1.487,1.4662,1.5091,1.5169,1.5179,1.5351,1.5356,1.536,1.544,1.5438,1.5436,1.5435,1.5681,1.5692,1.5704,1.5812,0,0,1.5739,1.5744,0,0,0,0,0,0,0,0,1.4858,1.4886,1.5155,1.5164,1.5175,1.5362,1.5293,1.5511,1.544,1.534,1.5436,1.5434,1.5579,1.5599,1.5651,1.5823,1.5834,1.574,1.5747,1.5752,1.5756,0,0,0,0,0,0,0,1.4842,1.4875,1.5194,1.5158,1.5171,1.5188,1.5217,1.5334,1.5466,1.5349,1.5356,1.5386,1.5584,1.564,1.5657,1.5838,1.574,1.575,1.5757,1.5762,1.6116,1.6118,0,0,0,0,0,0,1.4816,1.4862,1.5186,1.5202,1.501,1.5197,1.523,1.5304,1.5465,1.5488,1.5387,1.5389,1.562,1.5644,1.5666,1.5807,1.5752,1.5763,1.577,1.6114,1.6117,1.6119,0,0,0,0,0,0,1.4806,1.4844,1.5175,1.5034,1.5078,1.5207,1.5289,1.531,1.5366,1.5494,1.5517,1.5421,1.562,1.565,1.5777,1.5816,1.5768,1.5779,1.6111,1.6114,1.6118,1.6086,0,0,0,0,0,0,1.4793,1.484,1.4885,1.5035,1.5085,1.5285,1.5292,1.5316,1.5388,1.5392,1.5532,1.5553,1.5621,1.5759,1.5789,1.5832,1.5788,1.6108,1.6112,1.6117,1.6084,1.6088,1.6091,0,0,0,0,0,1.4777,1.486,1.4887,1.4925,1.5144,1.5287,1.5315,1.5397,1.539,1.5435,1.5519,1.5548,1.5808,1.5772,1.5805,1.5852,1.6106,1.6111,1.6116,1.6082,1.6087,1.6091,0,0,0,0,0,0,1.4703,1.4881,1.4912,1.5047,1.5153,1.5301,1.5359,1.5398,1.5503,1.5502,1.5594,1.5625,1.5745,1.5811,1.5768,1.5968,1.5958,1.597,1.592,1.5926,1.5929,1.591,1.5798,0,0,0,0,0,1.4704,1.481,1.4958,1.5062,1.5115,1.5228,1.5293,1.5348,1.5458,1.5501,1.5593,1.5695,1.58,1.5866,1.597,1.6094,1.6126,1.6143,1.6147,1.615,1.6158,1.6232,1.6242,1.6137,1.6137,1.6137,0,0,1.4703,1.4814,1.4874,1.5051,1.5138,1.5243,1.5264,1.5372,1.545,1.5515,1.5644,1.5715,1.5834,1.5962,1.6023,1.6021,1.6196,1.6156,1.6157,1.6165,1.6239,1.6249,1.6257,1.6141,1.614,1.6139,0,0,1.4757,1.4852,1.4952,1.5042,1.5179,1.5255,1.5279,1.5424,1.5476,1.5608,1.5661,1.5752,1.593,1.6015,1.608,1.6174,1.6206,1.6205,1.6223,1.6294,1.6302,1.631,1.6344,1.6356,1.6214,1.6214,1.6214,0,1.4738,1.4903,1.4996,1.5106,1.5182,1.5255,1.5356,1.5436,1.5596,1.5646,1.5643,1.5873,1.5958,1.6108,1.6132,1.6182,1.6211,1.6188,1.6295,1.6303,1.6312,1.6346,1.6358,1.6213,1.6213,1.6213,1.6213,0,1.4874,1.4987,1.5051,1.5213,1.5297,1.54,1.5507,1.558,1.5629,1.5704,1.5838,1.5944,1.6073,1.6112,1.6157,1.627,1.6265,1.6277,1.6269,1.632,1.6353,1.6366,1.6212,1.6212,1.6212,1.6212,0,0,1.4882,1.5102,1.5124,1.5201,1.5359,1.5447,1.5554,1.5687,1.5748,1.5857,1.5948,1.6101,1.6116,1.6191,1.6247,1.6309,1.6379,1.6314,1.6319,1.6323,1.6511,1.6501,1.6515,1.6403,1.6405,1.6408,1.6502,0,1.4957,1.5159,1.525,1.5409,1.5516,1.5589,1.5683,1.5789,1.5863,1.5962,1.6042,1.615,1.616,1.6207,1.6272,1.6357,1.6418,1.6351,1.6485,1.6489,1.6453,1.6532,1.6521,1.6604,1.6515,1.6517,1.6519,0,1.5069,1.5189,1.5361,1.5514,1.5561,1.5645,1.5776,1.587,1.5992,1.6042,1.613,1.6185,1.6298,1.6285,1.6441,1.6394,1.6454,1.6505,1.651,1.6524,1.6506,1.6548,1.6632,1.6644,1.654,1.6538,1.6537,0,1.5061,1.5263,1.5394,1.5457,1.5637,1.5695,1.5771,1.5892,1.5968,1.6081,1.6131,1.6253,1.6319,1.6411,1.6497,1.6479,1.6646,1.6638,1.6688,1.6686,1.6718,1.6715,1.6812,1.6757,1.6757,1.6757,1.6757,0,1.5134,1.5237,1.5394,1.5474,1.5591,1.5694,1.5806,1.5887,1.5995,1.609,1.6159,1.6245,1.6354,1.6453,1.652,1.6641,1.6669,1.6711,1.6727,1.6705,1.67,1.6744,1.6741,1.676,1.6759,1.6759,1.6758,0,1.5143,1.5252,1.54,1.5563,1.5606,1.5685,1.5822,1.5901,1.5982,1.6102,1.6135,1.626,1.6381,1.6478,1.6633,1.6679,1.6805,1.6823,1.6766,1.6775,1.682,1.6814,1.6949,1.6973,1.6901,1.6902,1.6902,0,1.5182,1.5265,1.5439,1.5512,1.5591,1.5704,1.5786,1.589,1.597,1.6119,1.618,1.6308,1.6416,1.6606,1.6707,1.6827,1.6848,1.6888,1.6866,1.6843,1.685,1.6844,1.6853,1.6889,1.6889,1.689,1.689,0,1.5241,1.5294,1.5411,1.5549,1.5646,1.5757,1.5869,1.5922,1.6047,1.6133,1.6263,1.6347,1.6512,1.6637,1.677,1.6843,1.6887,1.6897,1.6915,1.6892,1.6856,1.6878,1.6773,1.6892,1.6892,1.6892,1.6892,1.6892,1.5267,1.5346,1.5484,1.5613,1.5711,1.5816,1.5901,1.5996,1.6108,1.6256,1.6309,1.6442,1.6564,1.6748,1.6823,1.6926,1.6929,1.6954,1.6961,1.6965,1.6964,1.6842,1.695,1.695,1.695,1.695,1.695,0,1.5331,1.5426,1.5544,1.5705,1.5806,1.5847,1.5975,1.6056,1.6175,1.6289,1.6397,1.6546,1.667,1.6784,1.6913,1.6973,1.6997,1.7003,1.6999,1.7016,1.6953,1.6926,1.6983,1.6983,1.6983,1.6983,1.6983,1.6983,1.5376,1.5513,1.5583,1.5769,1.5861,1.5999,1.6068,1.6165,1.6258,1.6425,1.6532,1.6608,1.6722,1.6861,1.6975,1.7006,1.7049,1.7051,1.7085,1.7024,1.702,1.7015,1.699,1.706,1.706,1.714,1.7141,1.7141]}]]